This is the latest recevied weather packets stored in our database for station/object DB0FN-10. If no packets are shown the sender has not sent any weather packets the latest 10 day(s).
| Time | Temp. | Humidity | Pressure | Rain* | Wind** | Luminosity | Snow |
|---|---|---|---|---|---|---|---|
| 1777669268 | 18.33° C | 31% | 1026.9 hPa | - | - | - | - |
| 1777668368 | 18.33° C | 31% | 1026.9 hPa | - | - | - | - |
| 1777667468 | 18.33° C | 31% | 1026.9 hPa | - | - | - | - |
| 1777666568 | 18.33° C | 31% | 1026.9 hPa | - | - | - | - |
| 1777665668 | 18.33° C | 30% | 1026.9 hPa | - | - | - | - |
| 1777664768 | 18.89° C | 29% | 1026.8 hPa | - | - | - | - |
| 1777663868 | 19.44° C | 30% | 1026.7 hPa | - | - | - | - |
| 1777662968 | 19.44° C | 29% | 1026.6 hPa | - | - | - | - |
| 1777662067 | 19.44° C | 28% | 1026.7 hPa | - | - | - | - |
| 1777661167 | 20° C | 27% | 1026.5 hPa | - | - | - | - |
| 1777660267 | 21.11° C | 26% | 1026.4 hPa | - | - | - | - |
| 1777659367 | 21.11° C | 24% | 1026.4 hPa | - | - | - | - |
| 1777658467 | 22.22° C | 23% | 1026.3 hPa | - | - | - | - |
| 1777657567 | 22.78° C | 23% | 1026.2 hPa | - | - | - | - |
| 1777656667 | 23.33° C | 23% | 1026.2 hPa | - | - | - | - |
| 1777655767 | 22.22° C | 23% | 1026.2 hPa | - | - | - | - |
| 1777654867 | 22.78° C | 22% | 1026.2 hPa | - | - | - | - |
| 1777653967 | 23.33° C | 21% | 1026.3 hPa | - | - | - | - |
| 1777653067 | 22.78° C | 21% | 1026.3 hPa | - | - | - | - |
| 1777652167 | 23.33° C | 21% | 1026.5 hPa | - | - | - | - |
| 1777651267 | 22.78° C | 22% | 1026.6 hPa | - | - | - | - |
| 1777650367 | 23.33° C | 21% | 1026.6 hPa | - | - | - | - |
| 1777649466 | 22.78° C | 20% | 1026.8 hPa | - | - | - | - |
| 1777647666 | 22.78° C | 22% | 1026.9 hPa | - | - | - | - |
| 1777646766 | 22.78° C | 23% | 1026.9 hPa | - | - | - | - |
* Rain since midnight (hover to see other rain measurements)
** Current wind speed in m/s (hover to see current wind gust speed)